レモン彗星

C/2018 R3 ( Lemmon )

English version
Home page
Updated on May 20, 2019

---------------------------------------------------------------------

・ プロフィール

発見日 2018年9月7日
発見光度 19.2等
発見者 B. M. Africano (Mount Lemmon Survey)

・ 写真集

・ 軌道要素

Epoch 2019 June 6.0 TT = JDT 2458640.5
T 2019 June 7.20049 TT                                  MPCW
q   1.2905957            (2000.0)            P               Q
z  +0.0005338      Peri.  112.87743     -0.13207132     -0.82927174
 +/-0.0000028      Node   324.62537     +0.10169005     +0.53358851
e   0.9993111      Incl.   69.71497     +0.98601029     -0.16610745
From 123 observations 2018 Aug. 8-2019 May 4, mean residual 0".5.

・ 星図

・ 光度変化

        m1 = 11.5 + 5 logΔ + 10.0 log r

---------------------------------------------------------------------

軌道要素はM.P.E.C. 2019-J142に掲載されたものです。
星図はステラナビゲータ Ver.10 (アストロアーツ) で作成したものです。
光度グラフはComet for Windowsで作成したものです。

---------------------------------------------------------------------

Copyright(C) Seiichi Yoshida (comet@aerith.net). All rights reserved.